Volver al catálogo

LAOSAT 1

ActivoComunicacionesGEO
NORAD 41034·PAYLOAD·🇱🇦 Laos

Lanzado Nov 20, 2015 desde Xichang Satellite Launch Center

Loading…

TLE

ActualizadoSource: Space-Track

Época: Sep 14, 2026, 14:24 UTC

1 41034U 15067A   26257.60058112  .00000000  00000-0  00000-0 0  9996
2 41034   0.0063 344.1141 0002522 129.9754 224.2120  1.00270632 39757

Sigue LAOSAT 1 en tiempo real con AllMySat

Download on the App Store